Change the Weather History Date:

Wednesday, April 9, 2014

  Actual Average Record
Temperature  
Mean Temperature 53 °F 53 °F  
Max Temperature 78 °F 65 °F 88 °F (2011)
Min Temperature 27 °F 41 °F 21 °F (2003)
Degree Days  
Heating Degree Days 12 13  
Month to date heating degree days 153 125  
Since 1 July heating degree days 5320 4781  
Cooling Degree Days 0 1  
Month to date cooling degree days 0 2  
Year to date cooling degree days 0 5  
Growing Degree Days 3 (Base 50)    
Moisture  
Dew Point 31 °F    
Average Humidity 52    
Maximum Humidity 85    
Minimum Humidity 19    
Precipitation  
Precipitation 0.00 in 0.11 in 0.58 in (2009)
Month to date precipitation 1.22 0.81  
Year to date precipitation 3.24 5.74  
Sea Level Pressure  
Sea Level Pressure 29.96 in    
Wind  
Wind Speed 13 mph (SSW)    
Max Wind Speed 26 mph    
Max Gust Speed 38 mph    
Visibility 10 miles    
Events      
T = Trace of Precipitation, MM = Missing Value Source: NWS Daily Summary

Daily Weather History Graph

Daily Weather History Graph

Search for Another Location

Airport or City:

Trip Planner

Search our weather history database for the weather conditions in past years. The results will help you decide how hot, cold, wet, or windy it might be!

Date:

Astronomy

Apr. 09, 2014 Rise Set
Actual Time 6:53 AM CDT 7:52 PM CDT
Civil Twilight 6:25 AM CDT 8:19 PM CDT
Nautical Twilight 5:53 AM CDT 8:52 PM CDT
Astronomical Twilight 5:19 AM CDT 9:25 PM CDT
Moon 2:43 PM CDT (4/9) 3:40 AM CDT (4/9)
Length of Visible Light 13h 53m
Length of Day
12h 59m
Waxing Gibbous, 72% of the Moon is Illuminated
Apr 9
Waxing Gibbous
Apr 15
Full
Apr 22
Last Quarter
Apr 29
New
May 6
First Quarter

Hourly Weather History & Observations

Time (CDT) Temp. Windchill Dew Point Humidity Pressure Visibility Wind Dir Wind Speed Gust Speed Precip Events Conditions
12:52 AM 32.0 °F 27.5 °F 27.0 °F 82% 30.12 in 10.0 mi NW 4.6 mph - N/A   Clear
1:52 AM 30.9 °F 27.5 °F 26.1 °F 82% 30.11 in 10.0 mi NW 3.5 mph - N/A   Clear
2:52 AM 30.9 °F 27.5 °F 26.1 °F 82% 30.10 in 10.0 mi NW 3.5 mph - N/A   Clear
3:52 AM 28.9 °F 23.9 °F 25.0 °F 85% 30.10 in 10.0 mi NNW 4.6 mph - N/A   Clear
4:52 AM 30.0 °F - 25.0 °F 82% 30.11 in 10.0 mi Calm Calm - N/A   Clear
5:52 AM 28.0 °F 24.2 °F 24.1 °F 85% 30.12 in 10.0 mi NNW 3.5 mph - N/A   Clear
6:52 AM 28.0 °F 24.2 °F 25.0 °F 88% 30.12 in 10.0 mi SE 3.5 mph - N/A   Clear
7:52 AM 33.1 °F 28.7 °F 28.9 °F 85% 30.12 in 8.0 mi East 4.6 mph - N/A   Clear
8:52 AM 46.0 °F 44.8 °F 34.0 °F 63% 30.12 in 10.0 mi SSE 3.5 mph - N/A   Clear
9:52 AM 57.0 °F - 28.0 °F 33% 30.09 in 10.0 mi SW 15.0 mph - N/A   Clear
10:52 AM 64.0 °F - 27.0 °F 25% 30.07 in 10.0 mi SSW 16.1 mph - N/A   Clear
11:52 AM 68.0 °F - 26.1 °F 21% 30.04 in 10.0 mi South 13.8 mph - N/A   Clear
1:52 PM 73.9 °F - 30.0 °F 20% 29.93 in 10.0 mi SSW 24.2 mph 33.4 mph N/A   Clear
2:52 PM 75.9 °F - 30.9 °F 19% 29.90 in 10.0 mi SSW 18.4 mph 32.2 mph N/A   Clear
3:52 PM 77.0 °F - 33.1 °F 20% 29.86 in 10.0 mi South 18.4 mph 28.8 mph N/A   Clear
4:52 PM 78.1 °F - 34.0 °F 20% 29.83 in 10.0 mi SSW 18.4 mph 33.4 mph N/A   Clear
5:52 PM 78.1 °F - 35.1 °F 21% 29.80 in 10.0 mi South 19.6 mph 31.1 mph N/A   Clear
6:52 PM 75.0 °F - 36.0 °F 24% 29.79 in 7.0 mi South 20.7 mph 27.6 mph N/A   Clear
7:52 PM 70.0 °F - 37.0 °F 30% 29.78 in 6.0 mi South 11.5 mph - N/A   Haze
8:52 PM 66.0 °F - 37.9 °F 36% 29.77 in 9.0 mi SSE 10.4 mph - N/A   Clear
9:52 PM 66.0 °F - 37.9 °F 36% 29.76 in 10.0 mi South 12.7 mph - N/A   Clear
10:52 PM 66.0 °F - 39.0 °F 37% 29.75 in 10.0 mi South 13.8 mph 21.9 mph N/A   Clear
11:52 PM 66.0 °F - 39.0 °F 37% 29.73 in 10.0 mi SSW 21.9 mph 28.8 mph N/A   Clear